Lawrence, MA

3:34 PM EDT on October 18, 2017 (GMT -0400)
Lawrence Municipal

Weather History for KLWM - May, 2013

Change the Weather History Date:

Wednesday, May 8, 2013

  Actual Average Record
Temperature  
Mean Temperature 64 °F -  
Max Temperature 75 °F 63 °F 88 °F (1936)
Min Temperature 54 °F 42 °F 28 °F (1992)
Growing Degree Days 14 (Base 50)    
Moisture  
Dew Point 57 °F    
Average Humidity 79    
Maximum Humidity 93    
Minimum Humidity 52    
Precipitation  
Precipitation 0.08 in - - ()
Sea Level Pressure  
Sea Level Pressure 30.16 in    
Wind  
Wind Speed 5 mph (ESE)    
Max Wind Speed 14 mph    
Max Gust Speed 26 mph    
Visibility 9 miles    
Events Rain    
Averages and records for this station are not official NWS values.
T = Trace of Precipitation, MM = Missing Value Source: NWS Daily Summary

Daily Weather History Graph

Daily Weather History Graph

Search for Another Location

Airport or City:

Trip Planner

Search our weather history database for the weather conditions in past years. The results will help you decide how hot, cold, wet, or windy it might be!

Date:

Astronomy

May. 08, 2013 Rise Set
Actual Time 5:29 AM EDT 7:52 PM EDT
Civil Twilight 4:58 AM EDT 8:24 PM EDT
Nautical Twilight 4:18 AM EDT 9:04 PM EDT
Astronomical Twilight 3:34 AM EDT 9:48 PM EDT
Moon 4:37 AM EDT (5/8) 6:47 PM EDT (5/8)
Length of Visible Light 15h 26m
Length of Day
14h 23m
Waning Crescent, 2% of the Moon is Illuminated
May 8
Waning Crescent
May 9
New
May 18
First Quarter
May 25
Full
May 31
Last Quarter

Hourly Weather History & Observations

Time (EDT) Temp. Dew Point Humidity Pressure Visibility Wind Dir Wind Speed Gust Speed Precip Events Conditions
12:54 AM 62.1 °F 54.0 °F 75% 30.19 in 10.0 mi South 4.6 mph - N/A   Clear
1:54 AM 59.0 °F 53.1 °F 81% 30.17 in 10.0 mi Calm Calm - N/A   Clear
2:54 AM 57.0 °F 52.0 °F 83% 30.17 in 10.0 mi Calm Calm - N/A   Clear
3:54 AM 55.0 °F 52.0 °F 89% 30.18 in 10.0 mi Calm Calm - N/A   Clear
4:54 AM 54.0 °F 51.1 °F 90% 30.18 in 10.0 mi Calm Calm - N/A   Clear
5:54 AM 54.0 °F 52.0 °F 93% 30.19 in 10.0 mi Calm Calm - N/A   Clear
6:54 AM 60.1 °F 55.0 °F 83% 30.21 in 10.0 mi Calm Calm - N/A   Clear
7:54 AM 63.0 °F 55.9 °F 78% 30.22 in 10.0 mi ESE 5.8 mph - N/A   Scattered Clouds
8:54 AM 68.0 °F 57.9 °F 70% 30.22 in 10.0 mi East 3.5 mph - N/A   Partly Cloudy
9:54 AM 72.0 °F 59.0 °F 64% 30.22 in 10.0 mi East 6.9 mph - N/A   Mostly Cloudy
10:54 AM 72.0 °F 59.0 °F 64% 30.22 in 10.0 mi ESE 9.2 mph - N/A   Mostly Cloudy
11:54 AM 75.0 °F 59.0 °F 57% 30.20 in 10.0 mi SE 10.4 mph 16.1 mph N/A   Mostly Cloudy
12:54 PM 75.0 °F 57.9 °F 55% 30.19 in 10.0 mi Variable 6.9 mph 20.7 mph N/A   Mostly Cloudy
1:01 PM 73.4 °F 57.2 °F 57% 30.19 in 10.0 mi SSE 13.8 mph 26.5 mph N/A   Mostly Cloudy
1:54 PM 73.0 °F 59.0 °F 61% 30.19 in 10.0 mi SE 8.1 mph 17.3 mph N/A   Scattered Clouds
2:54 PM 75.9 °F 57.0 °F 52% 30.16 in 10.0 mi SSE 11.5 mph 20.7 mph N/A   Scattered Clouds
3:54 PM 69.1 °F 59.0 °F 70% 30.15 in 10.0 mi Variable 5.8 mph 18.4 mph 0.00 in Rain Light Rain
4:18 PM 64.4 °F 59.0 °F 83% 30.16 in 1.8 mi SSE 9.2 mph - 0.06 in Rain Rain
4:24 PM 64.4 °F 60.8 °F 88% 30.16 in 2.0 mi Variable 5.8 mph - 0.08 in Rain Light Rain
4:28 PM 64.4 °F 60.8 °F 88% 30.16 in 3.0 mi SE 9.2 mph - 0.08 in Rain Light Rain
4:36 PM 64.4 °F 60.8 °F 88% 30.15 in 10.0 mi ESE 8.1 mph - 0.08 in   Overcast
4:54 PM 64.0 °F 60.1 °F 87% 30.15 in 10.0 mi ESE 6.9 mph 17.3 mph 0.08 in   Overcast
5:54 PM 64.9 °F 59.0 °F 81% 30.13 in 10.0 mi ESE 10.4 mph 16.1 mph N/A   Scattered Clouds
6:54 PM 63.0 °F 57.0 °F 81% 30.12 in 10.0 mi SE 9.2 mph - N/A   Mostly Cloudy
7:54 PM 62.1 °F 57.0 °F 84% 30.12 in 10.0 mi ESE 6.9 mph - N/A   Overcast
8:09 PM 60.8 °F 57.2 °F 88% 30.11 in 10.0 mi East 5.8 mph - N/A   Overcast
8:43 PM 60.8 °F 57.2 °F 88% 30.11 in 10.0 mi ESE 8.1 mph - N/A   Mostly Cloudy
8:54 PM 61.0 °F 57.9 °F 90% 30.11 in 10.0 mi Variable 4.6 mph - N/A   Overcast
9:54 PM 62.1 °F 57.9 °F 86% 30.11 in 10.0 mi Variable 4.6 mph - N/A   Overcast
10:18 PM 62.6 °F 57.2 °F 82% 30.10 in 10.0 mi SE 4.6 mph - N/A   Overcast
10:27 PM 60.8 °F 57.2 °F 88% 30.10 in 10.0 mi ESE 4.6 mph - N/A   Overcast
10:54 PM 61.0 °F 57.0 °F 87% 30.10 in 10.0 mi ESE 5.8 mph - N/A   Overcast
11:54 PM 60.1 °F 55.9 °F 86% 30.08 in 10.0 mi East 4.6 mph - N/A   Overcast